OK2ILA-1 Weather Reports


time (UTC)temp
F
wind
direction
speed
knots
gust
knots
rain 1hr
in
rain 24hr
in
rain mn
in
humidity
%
barometer
mb
20260506205248 66 189 5.2 10.4 0.00 0.00 0.00 100 1007.3
20260506204047 67 157 9.6 13.0 0.00 0.00 0.00 100 1007.3
20260506202847 67 188 7.8 13.9 0.00 0.00 0.00 100 1007.2
20260506201646 67 195 7.8 9.6 0.00 0.00 0.00 100 1007.3
20260506200445 67 160 6.1 11.3 0.00 0.00 0.00 100 1007.1
20260506195245 67 185 6.1 11.3 0.00 0.00 0.00 100 1007.1
20260506194044 67 158 3.5 7.8 0.00 0.00 0.00 100 1007.0
20260506192843 67 143 4.3 7.0 0.00 0.00 0.00 100 1007.0
20260506191643 67 180 4.3 6.1 0.00 0.00 0.00 100 1007.0
20260506191245 67 147 4.3 4.3 0.00 0.00 0.00 100 1006.8
20260506190442 68 165 4.3 7.0 0.00 0.00 0.00 100 1006.7
20260506185241 68 135 6.1 10.4 0.00 0.00 0.00 100 1006.6
20260506184040 68 144 4.3 13.9 0.00 0.00 0.00 100 1006.4
20260506182840 69 137 7.0 13.9 0.00 0.00 0.00 100 1006.2
20260506181639 69 153 12.2 13.0 0.00 0.00 0.00 100 1006.2
20260506180438 70 156 8.7 15.6 0.00 0.00 0.00 100 1006.2
20260506175238 70 153 9.6 16.5 0.00 0.00 0.00 100 1006.2
20260506174037 71 135 8.7 18.2 0.00 0.00 0.00 100 1006.2
20260506172836 71 150 12.2 17.4 0.00 0.00 0.00 100 1006.2
20260506171636 72 157 9.6 16.5 0.00 0.00 0.00 100 1006.3
20260506170435 72 178 9.6 20.0 0.00 0.00 0.00 100 1006.5
20260506165234 73 182 14.8 21.7 0.00 0.00 0.00 100 1006.4
20260506164034 73 199 13.0 19.1 0.00 0.00 0.00 100 1006.4
20260506162833 74 203 12.2 15.6 0.00 0.00 0.00 100 1006.5
20260506161632 74 160 14.8 18.2 0.00 0.00 0.00 100 1006.7
20260506160432 75 154 10.4 14.8 0.00 0.00 0.00 100 1006.8
20260506155231 75 188 6.1 11.3 0.00 0.00 0.00 100 1007.1
20260506154030 73 165 7.8 10.4 0.00 0.00 0.00 100 1007.4
20260506152830 73 146 10.4 14.8 0.00 0.00 0.00 100 1007.4
20260506151629 74 191 6.1 11.3 0.00 0.00 0.00 100 1007.4
20260506150428 75 181 8.7 12.2 0.00 0.00 0.00 100 1007.5
20260506145227 75 194 6.1 9.6 0.00 0.00 0.00 100 1007.7
20260506144027 74 184 6.1 13.0 0.00 0.00 0.00 100 1007.8
20260506142826 74 187 7.8 13.0 0.00 0.00 0.00 100 1007.8
20260506141625 75 188 5.2 11.3 0.00 0.00 0.00 100 1007.9
20260506140425 76 170 13.9 17.4 0.00 0.00 0.00 100 1007.9
20260506135224 75 212 7.8 14.8 0.00 0.00 0.00 100 1008.0
20260506134023 77 175 8.7 14.8 0.00 0.00 0.00 100 1008.1
20260506132823 75 201 7.0 14.8 0.00 0.00 0.00 100 1008.2
20260506131622 75 226 9.6 14.8 0.00 0.00 0.00 100 1008.3
20260506130421 78 215 8.7 13.9 0.00 0.00 0.00 100 1008.3
20260506125221 78 177 9.6 20.9 0.00 0.00 0.00 100 1008.2
20260506124020 78 149 13.9 16.5 0.00 0.00 0.00 100 1008.4
20260506122819 77 171 4.3 13.9 0.00 0.00 0.00 100 1008.5
20260506121619 77 180 7.8 13.0 0.00 0.00 0.00 100 1008.4
20260506120418 76 168 12.2 14.8 0.00 0.00 0.00 100 1008.5
20260506115217 77 189 9.6 18.2 0.00 0.00 0.00 100 1008.4
20260506114017 75 185 8.7 18.2 0.00 0.00 0.00 100 1008.5
20260506112816 76 161 14.8 17.4 0.00 0.00 0.00 100 1008.5
20260506111615 76 223 12.2 18.2 0.00 0.00 0.00 100 1008.6
20260506110415 76 180 8.7 17.4 0.00 0.00 0.00 100 1008.6
20260506105214 76 187 14.8 21.7 0.00 0.00 0.00 100 1008.5
20260506104013 76 163 15.6 18.2 0.00 0.00 0.00 100 1008.4
20260506102813 75 185 12.2 20.0 0.00 0.00 0.00 100 1008.6
20260506101612 75 188 7.8 15.6 0.00 0.00 0.00 100 1008.7
20260506100411 73 178 13.0 16.5 0.00 0.00 0.00 100 1008.8
20260506095210 74 192 12.2 13.9 0.00 0.00 0.00 100 1009.0
20260506094010 74 175 13.9 14.8 0.00 0.00 0.00 100 1009.0
20260506092809 71 246 7.0 13.0 0.00 0.00 0.00 100 1009.1
20260506091608 71 219 8.7 13.9 0.00 0.00 0.00 100 1009.0
20260506090408 72 225 6.1 17.4 0.00 0.00 0.00 100 1009.0
20260506085207 71 222 12.2 17.4 0.00 0.00 0.00 100 1009.0
20260506084006 71 170 6.1 14.8 0.00 0.00 0.00 100 1008.8
20260506082806 71 196 8.7 14.8 0.00 0.00 0.00 100 1008.7
20260506081605 71 195 7.0 18.2 0.00 0.00 0.00 100 1008.6
20260506080404 71 241 12.2 18.2 0.00 0.00 0.00 100 1008.6
20260506072802 68 182 9.6 17.4 0.00 0.00 0.00 100 1008.5
20260506071602 67 172 9.6 15.6 0.00 0.00 0.00 100 1008.6
20260506070401 67 234 7.8 15.6 0.00 0.00 0.00 100 1008.6
20260506061558 64 180 5.2 8.7 0.00 0.00 0.00 100 1008.3
20260506060358 63 201 7.0 10.4 0.00 0.00 0.00 100 1008.3
20260506022745 57 338 0.9 3.5 0.00 0.00 0.00 100 1007.1
20260506021545 58 36 0.0 3.5 0.00 0.00 0.00 100 1007.2
20260506020344 58 281 0.0 1.7 0.00 0.00 0.00 100 1007.3
20260506015143 58 84 0.0 0.9 0.00 0.00 0.00 100 1007.3
20260506013943 58 130 1.7 1.7 0.00 0.00 0.00 100 1007.3
20260506012742 59 209 0.0 1.7 0.00 0.00 0.00 100 1007.4
20260506011541 59 262 0.0 2.6 0.00 0.00 0.00 100 1007.3
20260506010341 59 202 0.9 3.5 0.00 0.00 0.00 100 1007.3
20260506005140 59 248 1.7 4.3 0.00 0.00 0.00 100 1007.3
20260506003939 59 208 7.8 7.8 0.00 0.00 0.00 100 1007.1
20260506002738 59 182 3.5 6.1 0.00 0.00 0.00 100 1007.0
20260506001538 60 181 2.6 2.6 0.00 0.00 0.00 100 1007.2
20260506000337 60 185 5.2 7.0 0.00 0.00 0.00 100 1007.1
20260505235136 60 208 2.6 7.0 0.00 0.00 0.00 100 1007.3
20260505233936 61 215 2.6 5.2 0.00 0.00 0.00 100 1007.5
20260505232735 61 127 2.6 7.0 0.00 0.00 0.00 100 1007.5
20260505231534 61 170 1.7 4.3 0.00 0.00 0.00 100 1007.6
20260505230334 61 163 2.6 3.5 0.00 0.00 0.00 100 1007.7
20260505225133 62 229 0.0 5.2 0.00 0.00 0.00 100 1007.7
20260505223932 62 181 3.5 7.0 0.00 0.00 0.00 100 1007.7
20260505222732 62 243 1.7 5.2 0.00 0.00 0.00 100 1007.7
20260505221531 62 251 1.7 7.8 0.00 0.00 0.00 100 1007.7
20260505220330 62 187 3.5 6.1 0.00 0.00 0.00 100 1007.7
20260505215130 63 184 3.5 9.6 0.00 0.00 0.00 100 1007.8
20260505213929 63 146 2.6 8.7 0.00 0.00 0.00 100 1007.9
20260505212728 64 184 3.5 6.1 0.00 0.00 0.00 100 1008.0
20260505211528 64 206 7.0 7.0 0.00 0.00 0.00 100 1007.8
20260505210327 65 191 0.9 4.3 0.00 0.00 0.00 100 1007.8